User: anonymous   Login
Location: Skalnate Pleso
(49.1889°N, 20.2450°E)
Time: 19:10:30
(UTC+01:00)
Language:

Iridium 45 - Orbit

View from above orbital plane
View from above orbital plane
View from above satellite
View from above satellite

Ground track
Ground track

The orbit data is extracted from the following two-line orbital elements,

1 25104U 97082A   17019.45498713  .00000110  00000-0  32099-4 0  9996
2 25104  86.3968 349.4097 0003193  80.8934 279.2623 14.34215138999053
Epoch (UTC): 19 January 2017 10:55:10
Eccentricity: 0.0003193
inclination: 86.3968°
perigee height: 775 km
apogee height: 780 km
right ascension of ascending node: 349.4097°
argument of perigee: 80.8934°
revolutions per day: 14.34215138
mean anomaly at epoch: 279.2623°
orbit number at epoch: 99905

The dashed part of the orbit path shows where the satellite is in the earth's shadow,  

DLR